Simultaneous Nadir Overpasses (SNOs) Predictions

Prediction of SNOs between LANDSAT-8 and NOAA-19 Satellite Orbit:

Table of predicted SNOs for the next 14.0 days since TLE Epoch: 10/27/2018
Index Date (LANDSAT-8) Time (LANDSAT-8) Lat,Lon (LANDSAT-8) SZA (LANDSAT-8 ) Date (NOAA-19) Time (NOAA-19) Lat,Lon (NOAA-19) SZA (NOAA-19 ) Distance(km) Time Diff (sec)
1 10/29/2018 06:24:46 78.12, 99.92 92.21 10/29/2018 06:24:20 78.12, 99.77 92.19 3.51 26
2 10/29/2018 07:14:15 -78.05, -92.80 87.88 10/29/2018 07:15:23 -78.08, -92.76 87.82 3.76 68
3 10/31/2018 11:58:31 -78.14,-163.46 87.05 10/31/2018 11:57:55 -78.13,-163.61 87.07 3.58 36
4 10/31/2018 12:47:57 78.08, 3.94 92.90 10/31/2018 12:48:50 78.08, 3.95 92.92 0.37 53
5 11/02/2018 17:32:14 78.12, -66.94 93.66 11/02/2018 17:31:22 78.12, -66.83 93.64 2.71 52
6 11/02/2018 18:21:42 -78.10, 100.56 86.38 11/02/2018 18:22:25 -78.11, 100.47 86.36 2.40 43
7 11/04/2018 23:05:59 -78.14, 29.68 85.64 11/04/2018 23:04:57 -78.16, 29.60 85.64 3.45 62
8 11/04/2018 23:55:25 78.12,-162.74 94.36 11/04/2018 23:55:54 78.12,-162.87 94.35 3.25 29
9 11/07/2018 04:39:42 78.16, 126.37 95.06 11/07/2018 04:38:29 78.27, 125.67 95.09 19.69 73
10 11/07/2018 05:29:10 -78.13, -66.12 84.97 11/07/2018 05:29:27 -78.11, -66.12 84.99 3.18 17
11 11/09/2018 11:02:54 78.11, 30.34 95.65 11/09/2018 11:02:57 78.12, 30.51 95.67 3.99 3




NCC Satellite Simultaneous Nadir Overpasses (SNOs) Prediction Service
